Location: Stoke Bliss
(52.2667°N, 2.5167°W)
Time: 00:55:36
(UTC+00:00)

Cosmos 1805 Rocket - Pass Details

Date: 03 March 2021
Orbit: 606 x 629 km, 82.5° (Epoch: 11 April)

Event Time Altitude Azimuth Distance (km) Brightness Sun altitude
Rises 18:35:54 0° 202° (SSW) 2,878 7.3 -7.3°
Reaches altitude 10° 18:38:09 10° 207° (SSW) 1,981 6.5 -7.6°
Maximum altitude 18:42:27 54° 285° (WNW) 757 4.5 -8.3°
Drops below altitude 10° 18:46:50 10° 3° (N) 2,011 6.2 -9.0°
Sets 18:49:08 0° 8° (N) 2,926 7.0 -9.3°
